DW4604 Weather Reports


time (UTC)temp
C
wind
direction
speed
KPH
gust
KPH
rain 1hr
cm
rain 24hr
cm
rain mn
cm
humidity
%
barometer
mb
20260510231005 10 0 0.0 0.0 0.00 0.00 0.00 75 1007.8
20260510230506 10 0 0.0 0.0 0.00 0.00 0.00 75 1007.8
20260510230003 10 0 0.0 0.0 0.00 0.00 0.00 75 1007.8
20260510225932 10 0 0.0 0.0 0.00 0.00 0.00 75 1007.9
20260510225431 10 0 0.0 0.0 0.00 0.00 0.00 75 1007.9
20260510224932 10 0 0.0 0.0 0.00 0.00 0.00 74 1007.9
20260510224432 10 0 0.0 0.0 0.00 0.00 0.00 74 1007.9
20260510223932 10 0 0.0 0.0 0.00 0.00 0.00 74 1008.0
20260510223432 10 0 0.0 0.0 0.00 0.00 0.00 73 1008.1
20260510222933 10 0 0.0 0.0 0.00 0.00 0.00 73 1008.1
20260510222432 10 0 0.0 0.0 0.00 0.00 0.00 74 1008.1
20260510221931 10 0 0.0 0.0 0.00 0.00 0.00 74 1008.1
20260510220931 10 0 0.0 0.0 0.00 0.00 0.00 74 1008.1
20260510220431 10 0 0.0 0.0 0.00 0.00 0.00 74 1008.2
20260510215933 10 0 0.0 0.0 0.00 0.00 0.00 74 1008.3
20260510215432 10 0 0.0 0.0 0.00 0.00 0.00 74 1008.3
20260510214931 10 0 0.0 0.0 0.00 0.00 0.00 74 1008.4
20260510214432 10 0 0.0 0.0 0.00 0.00 0.00 74 1008.4
20260510213932 10 0 0.0 0.0 0.00 0.00 0.00 73 1008.4
20260510213432 11 0 0.0 0.0 0.00 0.00 0.00 73 1008.5
20260510212932 11 0 0.0 0.0 0.00 0.00 0.00 72 1008.6
20260510212432 11 0 0.0 0.0 0.00 0.00 0.00 72 1008.6
20260510211932 11 0 0.0 0.0 0.00 0.00 0.00 72 1008.7
20260510211433 11 0 0.0 0.0 0.00 0.00 0.00 71 1008.8
20260510210932 11 0 0.0 0.0 0.00 0.00 0.00 71 1008.9
20260510210432 11 0 0.0 0.0 0.00 0.00 0.00 71 1008.9
20260510205932 11 0 0.0 0.0 0.00 0.00 0.00 71 1008.9
20260510205433 12 0 0.0 0.0 0.00 0.00 0.00 70 1008.9
20260510204932 12 0 0.0 0.0 0.00 0.00 0.00 69 1009.0
20260510204434 12 0 0.0 0.0 0.00 0.00 0.00 68 1009.0
20260510203932 12 0 0.0 0.0 0.00 0.00 0.00 67 1009.0
20260510203432 12 0 0.0 0.0 0.00 0.00 0.00 67 1009.1
20260510202933 12 0 0.0 0.0 0.00 0.00 0.00 68 1009.1
20260510202433 12 0 0.0 0.0 0.00 0.00 0.00 68 1009.1
20260510201932 12 0 0.0 0.0 0.00 0.00 0.00 67 1009.1
20260510201433 12 0 0.0 0.0 0.00 0.00 0.00 67 1009.1
20260510200932 13 0 0.0 0.0 0.00 0.00 0.00 67 1009.1
20260510195934 13 0 0.0 0.0 0.00 0.00 0.00 66 1009.4
20260510195433 13 0 0.0 0.0 0.00 0.00 0.00 67 1009.4
20260510194932 13 0 0.0 0.0 0.00 0.00 0.00 66 1009.5
20260510193933 13 0 0.0 0.0 0.00 0.00 0.00 66 1009.5
20260510192433 13 0 0.0 0.0 0.00 0.00 0.00 66 1009.5
20260510190933 13 0 0.0 0.0 0.00 0.00 0.00 65 1009.6
20260510190434 13 0 0.0 0.0 0.00 0.00 0.00 65 1009.7
20260510185934 13 0 0.0 0.0 0.00 0.00 0.00 65 1009.6
20260510185432 13 0 0.0 0.0 0.00 0.00 0.00 64 1009.6
20260510184934 14 0 0.0 0.0 0.00 0.00 0.00 64 1009.7
20260510183933 14 0 0.0 0.0 0.00 0.00 0.00 63 1009.6
20260510183434 14 0 0.0 0.0 0.00 0.00 0.00 64 1009.6
20260510182934 14 0 0.0 0.0 0.00 0.00 0.00 63 1009.6
20260510182433 15 0 0.0 0.0 0.00 0.00 0.00 62 1009.6
20260510181933 15 0 0.0 0.0 0.00 0.00 0.00 62 1009.6
20260510181434 15 0 0.0 0.0 0.00 0.00 0.00 61 1009.5
20260510180933 15 0 0.0 0.0 0.00 0.00 0.00 60 1009.5
20260510180433 15 0 0.0 0.0 0.00 0.00 0.00 60 1009.5
20260510175933 16 0 0.0 0.0 0.00 0.00 0.00 59 1009.5
20260510175434 16 0 0.0 0.0 0.00 0.00 0.00 58 1009.5
20260510174934 16 0 0.0 0.0 0.00 0.00 0.00 59 1009.5
20260510174432 16 0 0.0 0.0 0.00 0.00 0.00 58 1009.5
20260510173432 16 0 0.0 0.0 0.00 0.00 0.00 56 1009.5
20260510172933 16 0 0.0 0.0 0.00 0.00 0.00 55 1009.5
20260510172433 17 0 0.0 0.0 0.00 0.00 0.00 55 1009.5
20260510171934 17 0 0.0 0.0 0.00 0.00 0.00 54 1009.5
20260510171432 17 0 0.0 0.0 0.00 0.00 0.00 52 1009.4
20260510170434 17 0 0.0 0.0 0.00 0.00 0.00 51 1009.6
20260510165934 18 0 0.0 0.0 0.00 0.00 0.00 50 1009.6
20260510165434 18 0 0.0 0.0 0.00 0.00 0.00 48 1009.7
20260510164933 18 0 0.0 0.0 0.00 0.00 0.00 48 1009.7
20260510164433 18 0 0.0 0.0 0.00 0.00 0.00 49 1009.7
20260510163933 18 0 0.0 0.0 0.00 0.00 0.00 49 1009.8
20260510162434 19 0 0.0 0.0 0.00 0.00 0.00 46 1009.9
20260510161933 19 0 0.0 0.0 0.00 0.00 0.00 46 1010.0
20260510161434 19 0 0.0 0.0 0.00 0.00 0.00 45 1010.1
20260510160933 19 0 0.0 0.0 0.00 0.00 0.00 44 1010.1
20260510160433 20 0 0.0 0.0 0.00 0.00 0.00 46 1010.2
20260510155934 20 0 0.0 0.0 0.00 0.00 0.00 45 1010.1
20260510153933 20 0 0.0 0.0 0.00 0.00 0.00 46 1010.4
20260510153433 20 0 0.0 0.0 0.00 0.00 0.00 43 1010.4
20260510152933 20 0 0.0 0.0 0.00 0.00 0.00 46 1010.5
20260510152434 20 0 0.0 0.0 0.00 0.00 0.00 45 1010.5
20260510151933 20 0 0.0 0.0 0.00 0.00 0.00 43 1010.6
20260510150933 20 0 0.0 0.0 0.00 0.00 0.00 42 1010.7
20260510150433 20 0 0.0 0.0 0.00 0.00 0.00 44 1010.8
20260510145935 20 0 0.0 0.0 0.00 0.00 0.00 45 1010.8
20260510145434 20 0 0.0 0.0 0.00 0.00 0.00 45 1010.8
20260510144433 20 0 0.0 0.0 0.00 0.00 0.00 47 1010.9
20260510143935 20 0 0.0 0.0 0.00 0.00 0.00 44 1011.0
20260510143434 20 0 0.0 0.0 0.00 0.00 0.00 45 1011.2
20260510142933 20 0 0.0 0.0 0.00 0.00 0.00 43 1011.2
20260510142434 20 0 0.0 0.0 0.00 0.00 0.00 44 1011.3
20260510141933 20 0 0.0 0.0 0.00 0.00 0.00 45 1011.3
20260510141433 20 0 0.0 0.0 0.00 0.00 0.00 46 1011.4
20260510140933 20 0 0.0 0.0 0.00 0.00 0.00 45 1011.4
20260510140434 20 0 0.0 0.0 0.00 0.00 0.00 41 1011.5
20260510135934 20 0 0.0 0.0 0.00 0.00 0.00 45 1011.5
20260510135434 20 0 0.0 0.0 0.00 0.00 0.00 41 1011.6
20260510134934 20 0 0.0 0.0 0.00 0.00 0.00 46 1011.6
20260510134433 20 0 0.0 0.0 0.00 0.00 0.00 43 1011.7
20260510133433 20 0 0.0 0.0 0.00 0.00 0.00 43 1011.9
20260510132934 20 0 0.0 0.0 0.00 0.00 0.00 44 1012.1
20260510131934 20 0 0.0 0.0 0.00 0.00 0.00 47 1012.1
20260510131434 20 0 0.0 0.0 0.00 0.00 0.00 42 1012.2
20260510130933 20 0 0.0 0.0 0.00 0.00 0.00 45 1012.1
20260510124934 20 0 0.0 0.0 0.00 0.00 0.00 51 1012.3
20260510124434 20 0 0.0 0.0 0.00 0.00 0.00 47 1012.3
20260510123934 20 0 0.0 0.0 0.00 0.00 0.00 46 1012.4
20260510123434 20 0 0.0 0.0 0.00 0.00 0.00 49 1012.4
20260510122935 20 0 0.0 0.0 0.00 0.00 0.00 49 1012.5
20260510122434 20 0 0.0 0.0 0.00 0.00 0.00 45 1012.5
20260510121934 19 0 0.0 0.0 0.00 0.00 0.00 45 1012.6
20260510121435 19 0 0.0 0.0 0.00 0.00 0.00 49 1012.7
20260510120935 20 0 0.0 0.0 0.00 0.00 0.00 47 1012.8
20260510120434 19 0 0.0 0.0 0.00 0.00 0.00 48 1012.9
20260510115934 19 0 0.0 0.0 0.00 0.00 0.00 49 1012.9
20260510115434 19 0 0.0 0.0 0.00 0.00 0.00 48 1012.9
20260510114936 19 0 0.0 0.0 0.00 0.00 0.00 46 1013.0
20260510114435 19 0 0.0 0.0 0.00 0.00 0.00 49 1013.1
20260510113934 19 0 0.0 0.0 0.00 0.00 0.00 45 1013.2
20260510112434 19 0 0.0 0.0 0.00 0.00 0.00 47 1013.3
20260510111935 18 0 0.0 0.0 0.00 0.00 0.00 48 1013.4
20260510110434 18 0 0.0 0.0 0.00 0.00 0.00 49 1013.5
20260510105934 18 0 0.0 0.0 0.00 0.00 0.00 49 1013.7
20260510105436 18 0 0.0 0.0 0.00 0.00 0.00 49 1013.7
20260510104934 18 0 0.0 0.0 0.00 0.00 0.00 52 1013.9
20260510104435 18 0 0.0 0.0 0.00 0.00 0.00 50 1014.1
20260510103934 18 0 0.0 0.0 0.00 0.00 0.00 50 1014.2
20260510103434 18 0 0.0 0.0 0.00 0.00 0.00 52 1014.3
20260510102935 18 0 0.0 0.0 0.00 0.00 0.00 51 1014.4
20260510102434 18 0 0.0 0.0 0.00 0.00 0.00 52 1014.6
20260510100935 18 0 0.0 0.0 0.00 0.00 0.00 54 1014.9
20260510100435 17 0 0.0 0.0 0.00 0.00 0.00 54 1014.8
20260510095935 17 0 0.0 0.0 0.00 0.00 0.00 53 1014.7
20260510095434 17 0 0.0 0.0 0.00 0.00 0.00 53 1014.8
20260510094934 17 0 0.0 0.0 0.00 0.00 0.00 56 1014.8
20260510094434 17 0 0.0 0.0 0.00 0.00 0.00 53 1014.9
20260510093935 17 0 0.0 0.0 0.00 0.00 0.00 56 1015.0
20260510093434 17 0 0.0 0.0 0.00 0.00 0.00 53 1015.0
20260510092934 17 0 0.0 0.0 0.00 0.00 0.00 55 1015.1
20260510091435 17 0 0.0 0.0 0.00 0.00 0.00 56 1015.2
20260510090435 17 0 0.0 0.0 0.00 0.00 0.00 59 1015.4
20260510085935 17 0 0.0 0.0 0.00 0.00 0.00 59 1015.5
20260510085434 16 0 0.0 0.0 0.00 0.00 0.00 57 1015.4
20260510084935 16 0 0.0 0.0 0.00 0.00 0.00 56 1015.5
20260510084434 16 0 0.0 0.0 0.00 0.00 0.00 57 1015.6
20260510083935 16 0 0.0 0.0 0.00 0.00 0.00 59 1015.7
20260510083435 16 0 0.0 0.0 0.00 0.00 0.00 61 1015.7
20260510082935 16 0 0.0 0.0 0.00 0.00 0.00 59 1015.8
20260510082437 16 0 0.0 0.0 0.00 0.00 0.00 59 1015.8
20260510081935 16 0 0.0 0.0 0.00 0.00 0.00 60 1015.9
20260510081435 16 0 0.0 0.0 0.00 0.00 0.00 62 1015.9
20260510080436 16 0 0.0 0.0 0.00 0.00 0.00 63 1016.0
20260510075935 16 0 0.0 0.0 0.00 0.00 0.00 61 1016.1
20260510075435 15 0 0.0 0.0 0.00 0.00 0.00 62 1016.1
20260510074934 15 0 0.0 0.0 0.00 0.00 0.00 61 1016.1
20260510074436 15 0 0.0 0.0 0.00 0.00 0.00 63 1016.0
20260510073935 15 0 0.0 0.0 0.00 0.00 0.00 64 1016.2
20260510073434 15 0 0.0 0.0 0.00 0.00 0.00 64 1016.3
20260510072436 14 0 0.0 0.0 0.00 0.00 0.00 65 1016.2
20260510071936 14 0 0.0 0.0 0.00 0.00 0.00 67 1016.2
20260510071435 14 0 0.0 0.0 0.00 0.00 0.00 67 1016.2
20260510070936 13 0 0.0 0.0 0.00 0.00 0.00 68 1016.3
20260510070435 13 0 0.0 0.0 0.00 0.00 0.00 68 1016.3
20260510065935 13 0 0.0 0.0 0.00 0.00 0.00 68 1016.1
20260510064935 13 0 0.0 0.0 0.00 0.00 0.00 71 1016.1
20260510063935 12 0 0.0 0.0 0.00 0.00 0.00 75 1016.1
20260510063435 12 0 0.0 0.0 0.00 0.00 0.00 78 1016.2
20260510062936 11 0 0.0 0.0 0.00 0.00 0.00 79 1016.2
20260510062435 11 0 0.0 0.0 0.00 0.00 0.00 84 1016.1
20260510061436 11 0 0.0 0.0 0.00 0.00 0.00 88 1016.2
20260510060936 10 0 0.0 0.0 0.00 0.00 0.00 91 1016.3
20260510060436 10 0 0.0 0.0 0.00 0.00 0.00 92 1016.3
20260510055935 10 0 0.0 0.0 0.00 0.00 0.00 93 1016.4
20260510055435 9 0 0.0 0.0 0.00 0.00 0.00 94 1016.5
20260510054435 8 0 0.0 0.0 0.00 0.00 0.00 94 1016.6
20260510053936 8 0 0.0 0.0 0.00 0.00 0.00 94 1016.7
20260510053435 8 0 0.0 0.0 0.00 0.00 0.00 94 1016.7
20260510051436 7 0 0.0 0.0 0.00 0.00 0.00 94 1016.8
20260510050936 7 0 0.0 0.0 0.00 0.00 0.00 95 1016.7
20260510050435 7 0 0.0 0.0 0.00 0.00 0.00 95 1016.8
20260510045937 6 0 0.0 0.0 0.00 0.00 0.00 94 1016.7
20260510045437 5 0 0.0 0.0 0.00 0.00 0.00 94 1016.8
20260510044936 5 0 0.0 0.0 0.00 0.00 0.00 94 1016.7
20260510043936 3 0 0.0 0.0 0.00 0.00 0.00 94 1016.9
20260510043436 3 0 0.0 0.0 0.00 0.00 0.00 94 1017.0
20260510042936 3 0 0.0 0.0 0.00 0.00 0.00 94 1017.1
20260510042435 2 0 0.0 0.0 0.00 0.00 0.00 94 1017.0
20260510041936 2 0 0.0 0.0 0.00 0.00 0.00 93 1016.8
20260510041436 2 0 0.0 0.0 0.00 0.00 0.00 93 1016.9
20260510040437 2 0 0.0 0.0 0.00 0.00 0.00 93 1016.8
20260510035435 2 0 0.0 0.0 0.00 0.00 0.00 93 1016.9
20260510034935 1 0 0.0 0.0 0.00 0.00 0.00 93 1016.9
20260510034435 1 0 0.0 0.0 0.00 0.00 0.00 93 1017.0
20260510033935 1 0 0.0 0.0 0.00 0.00 0.00 93 1017.0
20260510032436 1 0 0.0 0.0 0.00 0.00 0.00 93 1016.9
20260510031935 2 0 0.0 0.0 0.00 0.00 0.00 93 1017.0
20260510030935 2 0 0.0 0.0 0.00 0.00 0.00 93 1017.0
20260510030435 2 0 0.0 0.0 0.00 0.00 0.00 93 1017.0
20260510025936 2 0 0.0 0.0 0.00 0.00 0.00 93 1016.9
20260510025436 2 0 0.0 0.0 0.00 0.00 0.00 93 1017.0
20260510024937 2 0 0.0 0.0 0.00 0.00 0.00 93 1016.9
20260510024436 2 0 0.0 0.0 0.00 0.00 0.00 93 1016.9
20260510022936 2 0 0.0 0.0 0.00 0.00 0.00 93 1016.9
20260510022435 2 0 0.0 0.0 0.00 0.00 0.00 93 1016.9
20260510021935 2 0 0.0 0.0 0.00 0.00 0.00 93 1017.1
20260510021436 2 0 0.0 0.0 0.00 0.00 0.00 93 1017.2
20260510020935 2 0 0.0 0.0 0.00 0.00 0.00 93 1017.2
20260510020436 2 0 0.0 0.0 0.00 0.00 0.00 93 1017.2
20260510015936 2 0 0.0 0.0 0.00 0.00 0.00 93 1017.2
20260510014936 2 0 0.0 0.0 0.00 0.00 0.00 93 1017.3
20260510014436 2 0 0.0 0.0 0.00 0.00 0.00 93 1017.3
20260510013936 2 0 0.0 0.0 0.00 0.00 0.00 93 1017.4
20260510013436 2 0 0.0 0.0 0.00 0.00 0.00 93 1017.3
20260510012936 3 0 0.0 0.0 0.00 0.00 0.00 93 1017.3
20260510011436 2 0 0.0 0.0 0.00 0.00 0.00 93 1017.3
20260510010937 3 0 0.0 0.0 0.00 0.00 0.00 93 1017.3
20260510010438 2 0 0.0 0.0 0.00 0.00 0.00 93 1017.3
20260510005936 3 0 0.0 0.0 0.00 0.00 0.00 93 1017.4
20260510005437 3 0 0.0 0.0 0.00 0.00 0.00 93 1017.4
20260510004937 3 0 0.0 0.0 0.00 0.00 0.00 92 1017.4
20260510003936 3 0 0.0 0.0 0.00 0.00 0.00 92 1017.5
20260510003436 3 0 0.0 0.0 0.00 0.00 0.00 93 1017.5
20260510002936 3 0 0.0 0.0 0.00 0.00 0.00 93 1017.5
20260510001936 3 0 0.0 0.0 0.00 0.00 0.00 92 1017.7
20260510000936 3 0 0.0 0.0 0.00 0.00 0.00 92 1017.6
20260510000436 3 0 0.0 0.0 0.00 0.00 0.00 92 1017.7
20260509235936 3 0 0.0 0.0 0.00 0.00 0.00 93 1017.7
20260509235437 3 0 0.0 0.0 0.00 0.00 0.00 92 1017.7
20260509234936 3 0 0.0 0.0 0.00 0.00 0.00 92 1017.7
20260509233936 3 0 0.0 0.0 0.00 0.00 0.00 92 1017.8
20260509232937 3 0 0.0 0.0 0.00 0.00 0.00 92 1017.8
20260509232438 3 0 0.0 0.0 0.00 0.00 0.00 92 1017.8